Weather in Vystupovychi

Ukraine / Zhytomyr Region     51°33′49″N   29°04′40″E
temp.,
°C
wind,
m/s
gust,
m/s
humid.,
%
clouds,
%
prec.,
mm/h
press.,
hPa
HPBL,
m
10 may, mon
mon1000:00+6sse24685 0.0 102562
03:00+4se25691 0.0 102681
06:00+4sse24804 0.0 102682
09:00+12sse34555 0.0 1027429
12:00+16sse34410 0.0 10261461
15:00+18sse33360 0.0 10251800
18:00+17se32410 0.0 10241587
21:00+10ese36656 0.0 102587
11 may, tue
tue1100:00+8se266915 0.0 1026104
03:00+6ese22730 0.0 102632
06:00+5e24760 0.0 102566
09:00+12ene24500 0.0 1025514
12:00+17ene34350 0.0 1023973
15:00+20ne33400 0.0 10211133
18:00+20ne45485 0.0 10201065
21:00+13ne39835 0.0 1020175
12 may, wed
wed1200:00+12e311941 0.0 1019292
03:00+10e4109016 0.0 1020522
06:00+7e411938 0.0 1020447
09:00+11ese6106252 0.0 10201140
12:00+15ese695060 0.0 10191654
15:00+14ese475799 0.0 10171335
18:00+14e3563100 0.1 1015834
21:00+10ese248499 0.3 1013103
13 may, thu
thu1300:00+8se2791100 0.0 1013204
03:00+7se2894100 0.0 1012275
06:00+7se3794100 0.0 1011273
09:00+11se5871100 0.0 1011742
12:00+16sse694623 0.0 10101720
15:00+13sse51070100 0.0 1011784
18:00+16sse51061100 0.0 10101459
21:00+12se31086100 0.2 1010476
14 may, fri
fri1400:00+12e399793 2.5 1009368
03:00+12ese3799100 4.5 1008245
06:00+11ese269999 0.3 1007212
09:00+13sse129595 0.3 1007328
12:00+14ssw1391100 1.7 1007266
15:00+17ssw347288 3.0 10071031
18:00+17ssw357568 1.3 1007749
21:00+13ssw249499 1.5 100969